カタログに戻る

MIDAS 5

STRONGBACK

運用中軍事PO
NORAD 271·PAYLOAD·🇺🇸 United States

打ち上げ Apr 9, 1962 から Vandenberg Space Force Base

Loading…

次のパス (今後24時間)

TLE

最新Source: Space-Track

元期: Sep 14, 2026, 14:03 UTC

1 00271U 62010A   26257.58589135  .00000006  00000-0  59560-3 0  9999
2 00271  86.6568 302.8781 0326877 279.8551  76.5601  9.41308809214082

AllMySatでMIDAS 5をリアルタイム追跡

Download on the App Store